This demonstration page uses our WeatherBlox Daily Observations layout. Learn more.

Left ArrowRight Arrow

Hourly Observations for April 8, 2021

Temp ( °F °C ) Dew Point ( °F °C ) Humidity (%) Winds ( mph kmh ) Pressure ( in mb ) Visibility ( mi km ) Precip ( " mm )
12:15 am 00:15 Cloudy 45 7 37 3 76 76 NNW 12 19 29.75 1007 10 16.0934 0 0
12:35 am 00:35 Cloudy 45 7.3 37 2.6 72 72 NNW 17 28 29.74 1007 10 16.0934 0 0
12:55 am 00:55 Cloudy 46 7.7 35 1.4 65 65 NNW 14 22 29.72 1007 10 16.0934 0 0
1:15 am 01:15 Cloudy 46 7.7 33 0.4 60 60 NNW 17 28 29.72 1007 10 16.0934 0 0
1:35 am 01:35 Cloudy 46 7.6 32 0 59 59 NW 14 22 29.73 1007 10 16.0934 0 0
1:55 am 01:55 Cloudy 46 7.6 31 -0.4 57 57 NW 14 22 29.72 1007 10 16.0934 0 0
2:15 am 02:15 Cloudy 45 7.1 31 -0.5 59 59 NW 13 20 29.73 1007 10 16.0934 0 0
2:35 am 02:35 Cloudy 44 6.8 31 -0.5 60 60 NW 12 19 29.73 1007 10 16.0934 0 0
2:55 am 02:55 Cloudy 45 7 29 -1.4 55 55 NW 13 20 29.72 1006 10 16.0934 0 0
3:15 am 03:15 Partly Cloudy 43 5.9 30 -1.3 60 60 NW 13 20 29.73 1007 10 16.0934 0 0
3:35 am 03:35 Clear 41 5.2 29 -1.5 62 62 NW 14 22 29.73 1007 10 16.0934 0 0
3:55 am 03:55 Clear 41 5.1 28 -2 60 60 NW 16 26 29.73 1007 10 16.0934 0 0
4:15 am 04:15 Clear 40 4.7 29 -1.9 63 63 NW 16 26 29.73 1007 10 16.0934 0 0
4:35 am 04:35 Clear 41 4.9 28 -2.3 60 60 NW 16 26 29.72 1006 10 16.0934 0 0
4:55 am 04:55 Clear 41 5.1 27 -2.6 58 58 NW 15 24 29.72 1006 10 16.0934 0 0
5:15 am 05:15 Clear 41 5.2 27 -2.7 57 57 NNW 16 26 29.72 1006 10 16.0934 0 0
5:35 am 05:35 Clear 42 5.5 27 -2.8 55 55 NNW 15 24 29.71 1006 10 16.0934 0 0
5:55 am 05:55 Clear 41 5 27 -2.8 57 57 NW 14 22 29.72 1006 10 16.0934 0 0
6:15 am 06:15 Clear 38 3.5 26 -3.2 62 62 WNW 14 22 29.74 1007 10 16.0934 0 0
6:35 am 06:35 Clear 38 3.5 26 -3.4 61 61 WNW 13 20 29.74 1007 10 16.0934 0 0
6:55 am 06:55 Clear 37 3 26 -3.5 63 63 WNW 13 20 29.75 1007 10 16.0934 0 0
7:15 am 07:15 Sunny 38 3.2 26 -3.5 62 62 WNW 16 26 29.75 1008 10 16.0934 0 0
7:35 am 07:35 Sunny 38 3.2 26 -3.6 61 61 WNW 17 28 29.75 1008 10 16.0934 0 0
7:55 am 07:55 Sunny 39 4 26 -3.4 59 59 WNW 15 24 29.76 1008 10 16.0934 0 0
8:15 am 08:15 Sunny 40 4.2 26 -3.2 59 59 WNW 15 24 29.75 1008 10 16.0934 0 0
8:35 am 08:35 Sunny 40 4.5 27 -3 59 59 WNW 16 26 29.76 1008 10 16.0934 0 0
8:55 am 08:55 Sunny 43 6.1 28 -2.1 56 56 NW 17 28 29.75 1007 10 16.0934 0 0
9:15 am 09:15 Sunny 44 6.9 28 -2.5 52 52 NW 16 26 29.74 1007 10 16.0934 0 0
9:35 am 09:35 Sunny 46 7.6 28 -2.3 50 50 NW 16 26 29.72 1007 10 16.0934 0 0
9:55 am 09:55 Sunny 46 7.9 27 -2.8 47 47 NW 17 28 29.72 1006 10 16.0934 0 0
10:15 am 10:15 Sunny 48 9 28 -2.1 46 46 NW 17 28 29.71 1006 10 16.0934 0 0
10:35 am 10:35 Sunny 50 10.1 28 -2.2 42 42 NW 18 30 29.69 1005 10 16.0934 0 0
10:55 am 10:55 Sunny 52 11 28 -2.4 39 39 NW 18 30 29.69 1006 10 16.0934 0 0
11:15 am 11:15 Sunny 55 12.5 26 -3.3 33 33 NW 16 26 29.67 1005 10 16.0934 0 0
11:35 am 11:35 Sunny 55 12.9 26 -3.5 32 32 NW 22 35 29.67 1005 10 16.0934 0 0
11:55 am 11:55 Sunny 57 13.8 26 -3.2 31 31 NW 17 28 29.65 1004 10 16.0934 0 0
12:15 pm 12:15 Sunny 58 14.7 27 -3 30 30 NNW 17 28 29.64 1004 10 16.0934 0 0
12:35 pm 12:35 Sunny 59 15.2 24 -4.3 26 26 NW 21 33 29.63 1003 10 16.0934 0 0
12:55 pm 12:55 Sunny 60 15.7 23 -5.2 23 23 NW 21 33 29.61 1003 10 16.0934 0 0
1:15 pm 13:15 Sunny 61 16.3 22 -5.6 22 22 NW 16 26 29.61 1003 10 16.0934 0 0
1:35 pm 13:35 Sunny 62 16.9 23 -4.9 22 22 NW 17 28 29.58 1002 10 16.0934 0 0
1:55 pm 13:55 Sunny 63 17.3 22 -5.5 21 21 NW 21 33 29.57 1001 10 16.0934 0 0
2:15 pm 14:15 Sunny 65 18.2 23 -5.2 20 20 NW 14 22 29.56 1001 10 16.0934 0 0
2:35 pm 14:35 Sunny 65 18.5 23 -5.1 20 20 WNW 17 28 29.55 1001 10 16.0934 0 0
2:55 pm 14:55 Sunny 65 18.6 24 -4.6 20 20 NW 18 30 29.53 1000 10 16.0934 0 0
3:15 pm 15:15 Sunny 67 19.4 22 -5.3 18 18 NW 22 35 29.52 1000 10 16.0934 0 0
3:35 pm 15:35 Sunny 68 19.8 23 -5 18 18 NW 20 31 29.52 1000 10 16.0934 0 0
3:55 pm 15:55 Sunny 67 19.4 22 -5.3 18 18 NW 18 30 29.51 999 10 16.0934 0 0
4:15 pm 16:15 Sunny 68 19.9 23 -4.9 18 18 NNW 16 26 29.5 999 10 16.0934 0 0
4:35 pm 16:35 Sunny 68 20.2 23 -5.1 18 18 NW 20 31 29.51 999 10 16.0934 0 0
4:55 pm 16:55 Sunny 69 20.4 22 -5.4 17 17 NW 17 28 29.5 999 10 16.0934 0 0
5:15 pm 17:15 Sunny 69 20.5 24 -4.6 18 18 WNW 15 24 29.48 998 10 16.0934 0 0
5:35 pm 17:35 Sunny 69 20.6 23 -5 17 17 NNW 15 24 29.48 998 10 16.0934 0 0
5:55 pm 17:55 Sunny 69 20.3 23 -4.9 18 18 NNW 14 22 29.49 999 10 16.0934 0 0
6:15 pm 18:15 Sunny 69 20.5 23 -5 18 18 NNW 14 22 29.48 998 10 16.0934 0 0
6:35 pm 18:35 Sunny 68 20 23 -5.2 18 18 NNW 15 24 29.5 999 10 16.0934 0 0
6:55 pm 18:55 Sunny 68 19.8 23 -4.9 18 18 NNW 12 19 29.5 999 10 16.0934 0 0
7:15 pm 19:15 Sunny 67 19.2 25 -4 21 21 NNW 8 13 29.5 999 10 16.0934 0 0
7:35 pm 19:35 Sunny 65 18.4 25 -3.8 22 22 N 8 13 29.51 999 10 16.0934 0 0
7:55 pm 19:55 Sunny 63 17 26 -3.5 25 25 N 7 11 29.53 1000 10 16.0934 0 0
8:15 pm 20:15 Clear 60 15.5 25 -3.8 26 26 N 5 7 29.55 1001 10 16.0934 0 0
8:35 pm 20:35 Clear 57 13.7 25 -4 29 29 Calm 29.57 1001 10 16.0934 0 0
8:55 pm 20:55 Clear 56 13.4 25 -3.7 31 31 Calm 29.57 1001 10 16.0934 0 0
9:15 pm 21:15 Clear 53 11.4 24 -4.2 34 34 Calm 29.59 1002 10 16.0934 0 0
9:35 pm 21:35 Clear 51 10.3 25 -4 37 37 Calm 29.61 1003 10 16.0934 0 0
9:55 pm 21:55 Clear 51 10.6 25 -4 36 36 Calm 29.61 1003 10 16.0934 0 0
10:15 pm 22:15 Clear 49 9.3 25 -3.7 40 40 Calm 29.62 1003 10 16.0934 0 0
10:35 pm 22:35 Clear 47 8.3 25 -3.9 42 42 Calm 29.63 1003 10 16.0934 0 0
10:55 pm 22:55 Clear 45 7.4 26 -3.2 47 47 Calm 29.63 1003 10 16.0934 0 0
11:15 pm 23:15 Clear 43 5.9 27 -3 53 53 W 3 6 29.65 1004 10 16.0934 0 0
11:35 pm 23:35 Clear 41 4.9 26 -3.5 55 55 Calm 29.65 1004 10 16.0934 0 0
11:55 pm 23:55 Clear 42 5.3 25 -3.8 52 52 Calm 29.64 1004 10 16.0934 0 0

Powered by AerisWeather